Station Historical Data
Daily Summary for October 1, 2017 Units:  English    Metric   Both
Next Day »
Daily Weekly Monthly Yearly Custom
  High: Low: Average:
Temperature: 69.1 °F 54.8 °F 60.8 °F
Dew Point: 44.7 °F 27.2 °F 39.3 °F
Humidity: 61% 27% 47%
Wind Speed: 12.0mph 0.0mph 2mph
Wind Gust: 22.0mph - -
Wind- - SSE
Pressure: 29.93 in 29.82 in -
Precipitation: 0.00 in    
Historical Graphs
 
 
Tabular Data for October 1, 2017
Time Temperature Dew Point Pressure Wind Wind Speed Wind Gust Humidity Rainfall Rate (Hourly) solar Conditions
00:02 60.0 °F 44.7 °F 29.93 in Calm   4.0 mph 57% 0.00 in 0.00 W/m2
00:07 60.0 °F 44.7 °F 29.93 in Calm   5.0 mph 57% 0.00 in 0.00 W/m2
00:12 59.9 °F 44.7 °F 29.93 in East 1.0 mph 5.0 mph 57% 0.00 in 0.00 W/m2
00:17 59.8 °F 44.5 °F 29.93 in East 4.0 mph 5.0 mph 57% 0.00 in 0.00 W/m2
00:22 59.7 °F 44.5 °F 29.93 in East 4.0 mph 4.0 mph 57% 0.00 in 0.00 W/m2
00:27 59.6 °F 44.4 °F 29.93 in East 5.0 mph 5.0 mph 57% 0.00 in 0.00 W/m2
00:32 59.5 °F 44.3 °F 29.93 in East 1.0 mph 5.0 mph 57% 0.00 in 0.00 W/m2
00:37 59.5 °F 44.3 °F 29.93 in East 3.0 mph 5.0 mph 57% 0.00 in 0.00 W/m2
00:42 59.4 °F 44.2 °F 29.93 in Calm   4.0 mph 57% 0.00 in 0.00 W/m2
00:48 59.3 °F 44.1 °F 29.93 in Calm   2.0 mph 57% 0.00 in 0.00 W/m2
00:52 59.2 °F 44.5 °F 29.92 in East 4.0 mph 4.0 mph 58% 0.00 in 0.00 W/m2
00:57 59.1 °F 43.9 °F 29.92 in Calm   3.0 mph 57% 0.00 in 0.00 W/m2
01:03 59.0 °F 44.3 °F 29.92 in East 4.0 mph 4.0 mph 58% 0.00 in 0.00 W/m2
01:08 58.9 °F 44.2 °F 29.92 in Calm     58% 0.00 in 0.00 W/m2
01:13 58.8 °F 44.1 °F 29.92 in East 4.0 mph 6.0 mph 58% 0.00 in 0.00 W/m2
01:18 58.7 °F 44.0 °F 29.92 in East 4.0 mph 7.0 mph 58% 0.00 in 0.00 W/m2
01:23 58.5 °F 43.8 °F 29.92 in East 3.0 mph 5.0 mph 58% 0.00 in 0.00 W/m2
01:28 58.4 °F 44.1 °F 29.92 in East 2.0 mph 6.0 mph 59% 0.00 in 0.00 W/m2
01:30 58.4 °F 43.7 °F 29.92 in East 4.0 mph 6.0 mph 58% 0.00 in 0.00 W/m2
01:35 58.3 °F 44.0 °F 29.92 in East 6.0 mph 6.0 mph 59% 0.00 in 0.00 W/m2
01:40 58.2 °F 44.0 °F 29.92 in Calm   5.0 mph 59% 0.00 in 0.00 W/m2
01:45 58.2 °F 44.0 °F 29.92 in East 5.0 mph 5.0 mph 59% 0.00 in 0.00 W/m2
01:50 58.1 °F 43.9 °F 29.92 in Calm   5.0 mph 59% 0.00 in 0.00 W/m2
01:55 58.0 °F 43.8 °F 29.92 in East 2.0 mph 6.0 mph 59% 0.00 in 0.00 W/m2
02:00 57.9 °F 43.7 °F 29.93 in East 2.0 mph 5.0 mph 59% 0.00 in 0.00 W/m2
02:05 57.8 °F 43.6 °F 29.92 in East 1.0 mph 4.0 mph 59% 0.00 in 0.00 W/m2
02:10 57.8 °F 43.6 °F 29.93 in East 2.0 mph 5.0 mph 59% 0.00 in 0.00 W/m2
02:15 57.7 °F 43.9 °F 29.93 in Calm   5.0 mph 60% 0.00 in 0.00 W/m2
02:20 57.6 °F 43.8 °F 29.92 in East 1.0 mph 5.0 mph 60% 0.00 in 0.00 W/m2
02:25 57.5 °F 43.7 °F 29.92 in East 5.0 mph 6.0 mph 60% 0.00 in 0.00 W/m2
02:30 57.5 °F 43.7 °F 29.92 in East 4.0 mph 6.0 mph 60% 0.00 in 0.00 W/m2
02:35 57.4 °F 43.6 °F 29.92 in East 6.0 mph 8.0 mph 60% 0.00 in 0.00 W/m2
02:40 57.4 °F 43.6 °F 29.92 in East 2.0 mph 8.0 mph 60% 0.00 in 0.00 W/m2
02:45 57.4 °F 43.6 °F 29.92 in East 2.0 mph 9.0 mph 60% 0.00 in 0.00 W/m2
02:50 57.3 °F 44.0 °F 29.92 in East 4.0 mph 9.0 mph 61% 0.00 in 0.00 W/m2
02:55 57.3 °F 44.0 °F 29.92 in Calm   11.0 mph 61% 0.00 in 0.00 W/m2
03:00 57.3 °F 44.0 °F 29.92 in Calm   9.0 mph 61% 0.00 in 0.00 W/m2
03:05 57.2 °F 43.9 °F 29.92 in East 6.0 mph 8.0 mph 61% 0.00 in 0.00 W/m2
03:10 57.2 °F 43.9 °F 29.92 in East 4.0 mph 9.0 mph 61% 0.00 in 0.00 W/m2
03:15 57.2 °F 43.9 °F 29.91 in East 6.0 mph 9.0 mph 61% 0.00 in 0.00 W/m2
03:20 57.2 °F 43.9 °F 29.91 in ESE 7.0 mph 11.0 mph 61% 0.00 in 0.00 W/m2
03:25 57.2 °F 43.9 °F 29.91 in ESE 5.0 mph 8.0 mph 61% 0.00 in 0.00 W/m2
03:30 57.2 °F 43.9 °F 29.91 in ESE 4.0 mph 9.0 mph 61% 0.00 in 0.00 W/m2
03:35 57.1 °F 43.8 °F 29.91 in ESE 5.0 mph 8.0 mph 61% 0.00 in 0.00 W/m2
03:40 57.1 °F 43.8 °F 29.91 in ESE 1.0 mph 9.0 mph 61% 0.00 in 0.00 W/m2
03:45 57.1 °F 43.8 °F 29.91 in East 5.0 mph 11.0 mph 61% 0.00 in 0.00 W/m2
03:50 57.1 °F 43.8 °F 29.91 in ESE 4.0 mph 9.0 mph 61% 0.00 in 0.00 W/m2
03:55 57.0 °F 43.7 °F 29.91 in ESE 5.0 mph 9.0 mph 61% 0.00 in 0.00 W/m2
04:00 57.0 °F 43.7 °F 29.91 in ESE 6.0 mph 11.0 mph 61% 0.00 in 0.00 W/m2
04:05 57.0 °F 43.7 °F 29.91 in ESE 5.0 mph 11.0 mph 61% 0.00 in 0.00 W/m2
04:10 57.0 °F 43.7 °F 29.91 in ESE 7.0 mph 8.0 mph 61% 0.00 in 0.00 W/m2
04:15 57.0 °F 43.7 °F 29.91 in ESE 4.0 mph 8.0 mph 61% 0.00 in 0.00 W/m2
04:20 56.9 °F 43.6 °F 29.91 in ESE 1.0 mph 11.0 mph 61% 0.00 in 0.00 W/m2
04:25 56.9 °F 43.6 °F 29.91 in ESE 5.0 mph 9.0 mph 61% 0.00 in 0.00 W/m2
04:30 56.8 °F 43.5 °F 29.91 in ESE 5.0 mph 11.0 mph 61% 0.00 in 0.00 W/m2
04:35 56.8 °F 43.5 °F 29.91 in ESE 2.0 mph 9.0 mph 61% 0.00 in 0.00 W/m2
04:40 56.7 °F 43.4 °F 29.91 in ESE 1.0 mph 9.0 mph 61% 0.00 in 0.00 W/m2
04:45 56.7 °F 43.4 °F 29.91 in ESE 6.0 mph 9.0 mph 61% 0.00 in 0.00 W/m2
04:50 56.7 °F 43.4 °F 29.91 in ESE 4.0 mph 12.0 mph 61% 0.00 in 0.00 W/m2
04:56 56.6 °F 43.3 °F 29.91 in ESE 1.0 mph 11.0 mph 61% 0.00 in 0.00 W/m2
05:01 56.6 °F 43.3 °F 29.90 in ESE 7.0 mph 8.0 mph 61% 0.00 in 0.00 W/m2
05:06 56.5 °F 43.2 °F 29.91 in ESE 2.0 mph 9.0 mph 61% 0.00 in 0.00 W/m2
05:11 56.4 °F 42.7 °F 29.90 in ESE 4.0 mph 5.0 mph 60% 0.00 in 0.00 W/m2
05:16 56.4 °F 43.1 °F 29.91 in East 6.0 mph 11.0 mph 61% 0.00 in 0.00 W/m2
05:21 56.3 °F 43.0 °F 29.91 in East 6.0 mph 8.0 mph 61% 0.00 in 0.00 W/m2
05:26 56.3 °F 43.0 °F 29.91 in East 1.0 mph 8.0 mph 61% 0.00 in 0.00 W/m2
05:31 56.3 °F 42.6 °F 29.91 in East 6.0 mph 7.0 mph 60% 0.00 in 0.00 W/m2
05:36 56.3 °F 42.6 °F 29.91 in East 4.0 mph 8.0 mph 60% 0.00 in 0.00 W/m2
05:41 56.3 °F 42.6 °F 29.91 in Calm   9.0 mph 60% 0.00 in 0.00 W/m2
05:46 56.3 °F 42.6 °F 29.91 in East 5.0 mph 8.0 mph 60% 0.00 in 0.00 W/m2
05:51 56.3 °F 42.6 °F 29.91 in Calm   6.0 mph 60% 0.00 in 0.00 W/m2
05:56 56.3 °F 42.6 °F 29.91 in Calm   7.0 mph 60% 0.00 in 0.00 W/m2
06:01 56.2 °F 42.5 °F 29.91 in East 2.0 mph 12.0 mph 60% 0.00 in 0.00 W/m2
06:06 56.2 °F 42.5 °F 29.91 in East 4.0 mph 8.0 mph 60% 0.00 in 0.00 W/m2
06:11 56.1 °F 42.4 °F 29.91 in East 2.0 mph 9.0 mph 60% 0.00 in 0.00 W/m2
06:16 56.1 °F 42.4 °F 29.92 in East 1.0 mph 1.0 mph 60% 0.00 in 0.00 W/m2
06:21 56.0 °F 42.3 °F 29.92 in East 4.0 mph 8.0 mph 60% 0.00 in 0.00 W/m2
06:26 55.9 °F 41.8 °F 29.92 in Calm   7.0 mph 59% 0.00 in 0.00 W/m2
06:31 55.9 °F 42.2 °F 29.92 in Calm   6.0 mph 60% 0.00 in 0.00 W/m2
06:36 55.9 °F 42.2 °F 29.92 in Calm     60% 0.00 in 0.00 W/m2
06:41 55.7 °F 42.0 °F 29.92 in East 4.0 mph 7.0 mph 60% 0.00 in 0.00 W/m2
06:46 55.7 °F 42.0 °F 29.91 in East 5.0 mph 5.0 mph 60% 0.00 in 0.00 W/m2
06:51 55.6 °F 42.0 °F 29.91 in Calm     60% 0.00 in 0.00 W/m2
06:56 55.5 °F 41.9 °F 29.91 in Calm   7.0 mph 60% 0.00 in 5.00 W/m2
07:01 55.4 °F 41.3 °F 29.91 in Calm   8.0 mph 59% 0.00 in 5.00 W/m2
07:06 55.3 °F 41.2 °F 29.92 in East 1.0 mph 2.0 mph 59% 0.00 in 11.00 W/m2
07:11 55.2 °F 41.6 °F 29.92 in Calm     60% 0.00 in 16.00 W/m2
07:16 55.1 °F 41.5 °F 29.92 in East 4.0 mph 8.0 mph 60% 0.00 in 19.00 W/m2
07:21 55.1 °F 41.5 °F 29.92 in East 1.0 mph 8.0 mph 60% 0.00 in 23.00 W/m2
07:26 55.0 °F 41.4 °F 29.92 in Calm   7.0 mph 60% 0.00 in 30.00 W/m2
07:31 55.0 °F 41.4 °F 29.92 in Calm   7.0 mph 60% 0.00 in 40.00 W/m2
07:36 54.9 °F 41.3 °F 29.92 in Calm   6.0 mph 60% 0.00 in 53.00 W/m2
07:41 54.9 °F 41.3 °F 29.92 in Calm   6.0 mph 60% 0.00 in 63.00 W/m2
07:46 54.8 °F 41.2 °F 29.92 in East 1.0 mph 7.0 mph 60% 0.00 in 83.00 W/m2
07:51 54.8 °F 41.2 °F 29.92 in Calm     60% 0.00 in 95.00 W/m2
07:56 54.9 °F 41.3 °F 29.92 in Calm   6.0 mph 60% 0.00 in 109.00 W/m2
08:01 54.9 °F 41.3 °F 29.92 in Calm   7.0 mph 60% 0.00 in 132.00 W/m2
08:06 54.9 °F 41.3 °F 29.92 in Calm   8.0 mph 60% 0.00 in 151.00 W/m2
08:11 54.9 °F 41.3 °F 29.92 in ESE 2.0 mph 9.0 mph 60% 0.00 in 167.00 W/m2
08:16 55.0 °F 41.4 °F 29.92 in ESE 5.0 mph 7.0 mph 60% 0.00 in 193.00 W/m2
08:21 55.0 °F 41.4 °F 29.92 in ESE 4.0 mph 4.0 mph 60% 0.00 in 220.00 W/m2
08:26 55.1 °F 41.0 °F 29.92 in ESE 2.0 mph 12.0 mph 59% 0.00 in 241.00 W/m2
08:31 55.2 °F 41.1 °F 29.92 in ESE 9.0 mph 12.0 mph 59% 0.00 in 255.00 W/m2
08:36 55.3 °F 41.2 °F 29.92 in ESE 6.0 mph 11.0 mph 59% 0.00 in 267.00 W/m2
08:41 55.5 °F 41.4 °F 29.91 in Calm   11.0 mph 59% 0.00 in 281.00 W/m2
08:46 55.7 °F 41.2 °F 29.91 in East 4.0 mph 13.0 mph 58% 0.00 in 306.00 W/m2
08:51 55.8 °F 41.3 °F 29.91 in Calm     58% 0.00 in 323.00 W/m2
08:56 56.0 °F 41.0 °F 29.92 in East 4.0 mph 9.0 mph 57% 0.00 in 343.00 W/m2
09:01 56.3 °F 41.3 °F 29.92 in Calm     57% 0.00 in 357.00 W/m2
09:06 56.6 °F 41.6 °F 29.92 in Calm     57% 0.00 in 371.00 W/m2
09:11 56.9 °F 41.8 °F 29.92 in Calm     57% 0.00 in 390.00 W/m2
09:16 57.3 °F 42.2 °F 29.92 in Calm     57% 0.00 in 401.00 W/m2
09:18 57.5 °F 43.3 °F 29.92 in Calm     59% 0.00 in 406.00 W/m2
09:23 57.8 °F 43.1 °F 29.92 in Calm     58% 0.00 in 427.00 W/m2
09:28 58.2 °F 42.6 °F 29.92 in Calm     56% 0.00 in 434.00 W/m2
09:33 58.6 °F 42.5 °F 29.92 in Calm     55% 0.00 in 452.00 W/m2
09:38 58.9 °F 42.8 °F 29.92 in Calm     55% 0.00 in 469.00 W/m2
09:43 59.1 °F 43.4 °F 29.92 in Calm     56% 0.00 in 483.00 W/m2
09:48 59.3 °F 43.2 °F 29.92 in Calm     55% 0.00 in 492.00 W/m2
09:53 59.5 °F 42.9 °F 29.92 in Calm     54% 0.00 in 508.00 W/m2
09:58 59.7 °F 43.5 °F 29.92 in Calm     55% 0.00 in 513.00 W/m2
10:03 59.9 °F 43.2 °F 29.92 in Calm     54% 0.00 in 529.00 W/m2
10:08 60.1 °F 42.4 °F 29.91 in Calm     52% 0.00 in 548.00 W/m2
10:13 60.5 °F 43.3 °F 29.91 in Calm     53% 0.00 in 552.00 W/m2
10:18 60.8 °F 43.6 °F 29.92 in Calm     53% 0.00 in 568.00 W/m2
10:23 61.2 °F 44.0 °F 29.91 in East 2.0 mph 2.0 mph 53% 0.00 in 587.00 W/m2
10:28 61.4 °F 43.6 °F 29.91 in Calm     52% 0.00 in 582.00 W/m2
10:33 61.7 °F 44.4 °F 29.91 in Calm     53% 0.00 in 582.00 W/m2
10:38 62.0 °F 44.2 °F 29.91 in Calm   1.0 mph 52% 0.00 in 605.00 W/m2
10:43 62.2 °F 44.4 °F 29.91 in Calm     52% 0.00 in 622.00 W/m2
10:48 62.4 °F 44.0 °F 29.91 in Calm     51% 0.00 in 633.00 W/m2
10:53 62.9 °F 43.5 °F 29.91 in East 1.0 mph 3.0 mph 49% 0.00 in 638.00 W/m2
10:58 63.2 °F 44.3 °F 29.90 in Calm   2.0 mph 50% 0.00 in 652.00 W/m2
11:03 63.5 °F 44.5 °F 29.90 in East 4.0 mph 4.0 mph 50% 0.00 in 656.00 W/m2
11:08 63.9 °F 44.4 °F 29.90 in Calm   3.0 mph 49% 0.00 in 670.00 W/m2
11:13 64.3 °F 44.2 °F 29.90 in Calm   4.0 mph 48% 0.00 in 677.00 W/m2
11:18 64.7 °F 43.5 °F 29.90 in WNW 3.0 mph 7.0 mph 46% 0.00 in 693.00 W/m2
11:23 64.9 °F 43.7 °F 29.90 in WNW 4.0 mph 6.0 mph 46% 0.00 in 696.00 W/m2
11:28 65.2 °F 43.3 °F 29.91 in Calm   3.0 mph 45% 0.00 in 696.00 W/m2
11:33 65.5 °F 43.0 °F 29.90 in Calm   5.0 mph 44% 0.00 in 710.00 W/m2
11:38 65.8 °F 42.1 °F 29.90 in Calm   3.0 mph 42% 0.00 in 705.00 W/m2
11:43 66.0 °F 42.3 °F 29.90 in WNW 1.0 mph 5.0 mph 42% 0.00 in 722.00 W/m2
11:48 66.3 °F 42.5 °F 29.90 in Calm   4.0 mph 42% 0.00 in 726.00 W/m2
11:53 66.6 °F 42.8 °F 29.90 in Calm   8.0 mph 42% 0.00 in 719.00 W/m2
11:58 66.7 °F 43.5 °F 29.90 in NW 8.0 mph 8.0 mph 43% 0.00 in 728.00 W/m2
12:03 66.8 °F 43.6 °F 29.90 in NW 6.0 mph 6.0 mph 43% 0.00 in 726.00 W/m2
12:08 66.9 °F 43.1 °F 29.89 in NW 3.0 mph 7.0 mph 42% 0.00 in 731.00 W/m2
12:13 66.9 °F 43.1 °F 29.89 in NW 3.0 mph 6.0 mph 42% 0.00 in 729.00 W/m2
12:18 67.1 °F 43.9 °F 29.89 in NW 6.0 mph 7.0 mph 43% 0.00 in 737.00 W/m2
12:23 67.3 °F 44.1 °F 29.89 in WNW 3.0 mph 8.0 mph 43% 0.00 in 749.00 W/m2
12:28 67.5 °F 43.6 °F 29.89 in NW 2.0 mph 7.0 mph 42% 0.00 in 744.00 W/m2
12:33 67.5 °F 44.2 °F 29.89 in NW 2.0 mph 7.0 mph 43% 0.00 in 751.00 W/m2
12:38 67.5 °F 44.2 °F 29.89 in Calm   8.0 mph 43% 0.00 in 752.00 W/m2
12:43 67.5 °F 44.2 °F 29.89 in WNW 1.0 mph 6.0 mph 43% 0.00 in 752.00 W/m2
12:49 67.4 °F 43.5 °F 29.88 in Calm   7.0 mph 42% 0.00 in 752.00 W/m2
12:54 67.5 °F 43.6 °F 29.88 in WNW 1.0 mph 9.0 mph 42% 0.00 in 744.00 W/m2
12:59 67.6 °F 43.7 °F 29.88 in WNW 3.0 mph 9.0 mph 42% 0.00 in 742.00 W/m2
13:04 67.7 °F 42.5 °F 29.88 in West 6.0 mph 10.0 mph 40% 0.00 in 745.00 W/m2
13:09 67.8 °F 42.6 °F 29.88 in Calm   7.0 mph 40% 0.00 in 745.00 W/m2
13:14 68.0 °F 42.1 °F 29.88 in West 4.0 mph 8.0 mph 39% 0.00 in 745.00 W/m2
13:19 68.2 °F 41.7 °F 29.88 in WNW 6.0 mph 8.0 mph 38% 0.00 in 740.00 W/m2
13:24 68.4 °F 41.1 °F 29.87 in West 2.0 mph 10.0 mph 37% 0.00 in 738.00 W/m2
13:29 68.6 °F 39.9 °F 29.87 in NW 3.0 mph 10.0 mph 35% 0.00 in 740.00 W/m2
13:34 68.5 °F 39.8 °F 29.87 in Calm   9.0 mph 35% 0.00 in 735.00 W/m2
13:39 68.5 °F 39.8 °F 29.87 in Calm   6.0 mph 35% 0.00 in 729.00 W/m2
13:44 68.6 °F 39.9 °F 29.87 in WNW 5.0 mph 6.0 mph 35% 0.00 in 724.00 W/m2
13:49 68.6 °F 39.1 °F 29.87 in WNW 2.0 mph 11.0 mph 34% 0.00 in 717.00 W/m2
13:54 68.7 °F 40.0 °F 29.86 in WNW 1.0 mph 9.0 mph 35% 0.00 in 715.00 W/m2
13:59 68.8 °F 39.3 °F 29.86 in NW 2.0 mph 6.0 mph 34% 0.00 in 708.00 W/m2
14:04 69.0 °F 38.7 °F 29.86 in West 6.0 mph 10.0 mph 33% 0.00 in 701.00 W/m2
14:09 69.1 °F 38.0 °F 29.86 in NW 2.0 mph 10.0 mph 32% 0.00 in 696.00 W/m2
14:14 69.0 °F 38.7 °F 29.85 in Calm   7.0 mph 33% 0.00 in 691.00 W/m2
14:19 68.9 °F 37.8 °F 29.85 in WNW 1.0 mph 8.0 mph 32% 0.00 in 680.00 W/m2
14:24 68.9 °F 38.6 °F 29.85 in Calm   12.0 mph 33% 0.00 in 673.00 W/m2
14:29 68.9 °F 37.8 °F 29.84 in West 1.0 mph 9.0 mph 32% 0.00 in 670.00 W/m2
14:34 69.0 °F 37.9 °F 29.84 in West 5.0 mph 9.0 mph 32% 0.00 in 659.00 W/m2
14:39 69.0 °F 37.9 °F 29.84 in Calm   7.0 mph 32% 0.00 in 649.00 W/m2
14:44 69.0 °F 37.1 °F 29.85 in NW 2.0 mph 13.0 mph 31% 0.00 in 638.00 W/m2
14:49 68.8 °F 37.0 °F 29.84 in NW 5.0 mph 10.0 mph 31% 0.00 in 628.00 W/m2
14:54 68.7 °F 37.7 °F 29.84 in WNW 4.0 mph 10.0 mph 32% 0.00 in 619.00 W/m2
14:59 68.8 °F 36.1 °F 29.84 in WNW 5.0 mph 8.0 mph 30% 0.00 in 606.00 W/m2
15:04 68.8 °F 36.1 °F 29.84 in Calm   9.0 mph 30% 0.00 in 599.00 W/m2
15:09 68.6 °F 36.0 °F 29.84 in WNW 4.0 mph 9.0 mph 30% 0.00 in 589.00 W/m2
15:14 68.6 °F 36.0 °F 29.84 in WNW 3.0 mph 11.0 mph 30% 0.00 in 573.00 W/m2
15:19 68.8 °F 36.1 °F 29.84 in Calm   12.0 mph 30% 0.00 in 563.00 W/m2
15:24 68.7 °F 36.9 °F 29.84 in WNW 8.0 mph 10.0 mph 31% 0.00 in 543.00 W/m2
15:29 68.8 °F 35.3 °F 29.84 in WNW 5.0 mph 11.0 mph 29% 0.00 in 536.00 W/m2
15:34 68.8 °F 35.3 °F 29.84 in Calm   15.0 mph 29% 0.00 in 527.00 W/m2
15:39 68.9 °F 36.2 °F 29.84 in WNW 5.0 mph 12.0 mph 30% 0.00 in 522.00 W/m2
15:44 68.9 °F 35.4 °F 29.83 in WNW 6.0 mph 11.0 mph 29% 0.00 in 504.00 W/m2
15:49 68.8 °F 35.3 °F 29.83 in Calm   13.0 mph 29% 0.00 in 497.00 W/m2
15:54 68.8 °F 35.3 °F 29.83 in WNW 7.0 mph 14.0 mph 29% 0.00 in 485.00 W/m2
15:59 68.7 °F 35.2 °F 29.83 in Calm   8.0 mph 29% 0.00 in 471.00 W/m2
16:04 68.6 °F 35.1 °F 29.83 in NNW 6.0 mph 9.0 mph 29% 0.00 in 461.00 W/m2
16:10 68.6 °F 35.1 °F 29.83 in WNW 4.0 mph 10.0 mph 29% 0.00 in 445.00 W/m2
16:15 68.7 °F 35.2 °F 29.83 in Calm   9.0 mph 29% 0.00 in 431.00 W/m2
16:20 68.6 °F 34.2 °F 29.83 in NNW 2.0 mph 14.0 mph 28% 0.00 in 422.00 W/m2
16:25 68.6 °F 34.2 °F 29.83 in Calm   9.0 mph 28% 0.00 in 404.00 W/m2
16:30 68.6 °F 34.2 °F 29.83 in Calm   8.0 mph 28% 0.00 in 387.00 W/m2
16:35 68.6 °F 34.2 °F 29.83 in Calm   10.0 mph 28% 0.00 in 371.00 W/m2
16:40 68.6 °F 34.2 °F 29.83 in WNW 3.0 mph 9.0 mph 28% 0.00 in 353.00 W/m2
16:45 68.5 °F 34.1 °F 29.83 in WNW 6.0 mph 11.0 mph 28% 0.00 in 341.00 W/m2
16:50 68.4 °F 34.0 °F 29.83 in Calm   7.0 mph 28% 0.00 in 325.00 W/m2
16:55 68.4 °F 34.0 °F 29.82 in Calm   8.0 mph 28% 0.00 in 313.00 W/m2
17:00 68.3 °F 33.1 °F 29.82 in West 1.0 mph 9.0 mph 27% 0.00 in 297.00 W/m2
17:05 68.3 °F 34.0 °F 29.82 in West 5.0 mph 9.0 mph 28% 0.00 in 281.00 W/m2
17:10 68.2 °F 33.9 °F 29.82 in Calm   7.0 mph 28% 0.00 in 262.00 W/m2
17:15 68.1 °F 33.8 °F 29.82 in West 3.0 mph 8.0 mph 28% 0.00 in 244.00 W/m2
17:20 68.0 °F 33.7 °F 29.82 in Calm   5.0 mph 28% 0.00 in 227.00 W/m2
17:25 67.8 °F 33.5 °F 29.82 in Calm   10.0 mph 28% 0.00 in 211.00 W/m2
17:30 67.6 °F 32.5 °F 29.82 in Calm   10.0 mph 27% 0.00 in 192.00 W/m2
17:35 67.4 °F 32.3 °F 29.82 in NW 2.0 mph 10.0 mph 27% 0.00 in 171.00 W/m2
17:40 67.2 °F 33.0 °F 29.82 in Calm   6.0 mph 28% 0.00 in 156.00 W/m2
17:50 66.9 °F 34.5 °F 29.82 in Calm   1.0 mph 30% 0.00 in 114.00 W/m2
17:55 66.7 °F 35.1 °F 29.82 in Calm   7.0 mph 31% 0.00 in 95.00 W/m2
18:00 66.4 °F 34.9 °F 29.82 in Calm   1.0 mph 31% 0.00 in 77.00 W/m2
18:03 66.3 °F 35.6 °F 29.82 in NW 5.0 mph 6.0 mph 32% 0.00 in 49.00 W/m2
18:08 65.9 °F 34.4 °F 29.82 in NW 1.0 mph 6.0 mph 31% 0.00 in 26.00 W/m2
18:13 65.6 °F 34.2 °F 29.82 in NW 1.0 mph 8.0 mph 31% 0.00 in 21.00 W/m2
18:18 65.4 °F 34.0 °F 29.82 in Calm   5.0 mph 31% 0.00 in 14.00 W/m2
18:23 65.3 °F 34.7 °F 29.83 in Calm   6.0 mph 32% 0.00 in 12.00 W/m2
18:28 65.1 °F 35.3 °F 29.83 in Calm   2.0 mph 33% 0.00 in 11.00 W/m2
18:33 64.9 °F 35.9 °F 29.83 in Calm   1.0 mph 34% 0.00 in 11.00 W/m2
18:38 64.5 °F 35.5 °F 29.83 in Calm     34% 0.00 in 9.00 W/m2
18:43 64.2 °F 36.0 °F 29.83 in Calm     35% 0.00 in 7.00 W/m2
18:48 63.9 °F 35.7 °F 29.83 in Calm     35% 0.00 in 5.00 W/m2
18:53 63.5 °F 35.4 °F 29.83 in Calm     35% 0.00 in 5.00 W/m2
18:58 63.1 °F 35.7 °F 29.83 in Calm     36% 0.00 in 0.00 W/m2
19:03 62.7 °F 35.4 °F 29.83 in Calm     36% 0.00 in 0.00 W/m2
19:08 62.1 °F 35.5 °F 29.83 in Calm     37% 0.00 in 0.00 W/m2
19:13 61.6 °F 35.1 °F 29.83 in Calm   1.0 mph 37% 0.00 in 0.00 W/m2
19:18 61.2 °F 35.4 °F 29.83 in Calm     38% 0.00 in 0.00 W/m2
19:23 60.7 °F 35.6 °F 29.83 in Calm     39% 0.00 in 0.00 W/m2
19:28 60.0 °F 35.0 °F 29.83 in Calm     39% 0.00 in 0.00 W/m2
19:33 59.6 °F 35.3 °F 29.83 in Calm     40% 0.00 in 0.00 W/m2
19:38 59.4 °F 35.1 °F 29.83 in NW 2.0 mph 3.0 mph 40% 0.00 in 0.00 W/m2
19:43 59.1 °F 34.8 °F 29.83 in Calm     40% 0.00 in 0.00 W/m2
19:48 59.0 °F 34.7 °F 29.83 in Calm     40% 0.00 in 0.00 W/m2
19:53 58.6 °F 34.4 °F 29.83 in Calm     40% 0.00 in 0.00 W/m2
19:58 58.3 °F 34.1 °F 29.83 in Calm     40% 0.00 in 0.00 W/m2
20:03 58.0 °F 34.5 °F 29.83 in Calm     41% 0.00 in 0.00 W/m2
20:09 57.7 °F 34.2 °F 29.83 in Calm     41% 0.00 in 0.00 W/m2
20:14 57.6 °F 34.1 °F 29.83 in Calm     41% 0.00 in 0.00 W/m2
20:19 57.5 °F 34.0 °F 29.83 in Calm     41% 0.00 in 0.00 W/m2
20:23 57.4 °F 33.9 °F 29.83 in Calm     41% 0.00 in 0.00 W/m2
20:24 57.3 °F 33.8 °F 29.83 in Calm     41% 0.00 in 0.00 W/m2
20:29 57.3 °F 33.8 °F 29.84 in Calm     41% 0.00 in 0.00 W/m2
20:34 57.1 °F 33.6 °F 29.84 in Calm     41% 0.00 in 0.00 W/m2
20:35 57.1 °F 33.6 °F 29.84 in Calm     41% 0.00 in 0.00 W/m2
20:40 57.0 °F 33.5 °F 29.84 in Calm     41% 0.00 in 0.00 W/m2
20:45 57.0 °F 33.5 °F 29.84 in NW 2.0 mph 3.0 mph 41% 0.00 in 0.00 W/m2
20:50 56.9 °F 33.5 °F 29.84 in NW 1.0 mph 3.0 mph 41% 0.00 in 0.00 W/m2
20:55 56.9 °F 33.5 °F 29.84 in Calm   3.0 mph 41% 0.00 in 0.00 W/m2
21:00 56.9 °F 33.5 °F 29.84 in Calm   1.0 mph 41% 0.00 in 0.00 W/m2
21:05 56.8 °F 33.4 °F 29.84 in Calm     41% 0.00 in 0.00 W/m2
21:10 56.8 °F 33.4 °F 29.84 in Calm     41% 0.00 in 0.00 W/m2
21:15 56.8 °F 34.0 °F 29.84 in Calm   4.0 mph 42% 0.00 in 0.00 W/m2
21:20 56.8 °F 34.0 °F 29.84 in Calm   6.0 mph 42% 0.00 in 0.00 W/m2
21:25 56.8 °F 34.0 °F 29.84 in Calm   6.0 mph 42% 0.00 in 0.00 W/m2
21:30 56.8 °F 34.0 °F 29.84 in Calm   8.0 mph 42% 0.00 in 0.00 W/m2
21:35 56.8 °F 34.0 °F 29.84 in ENE 5.0 mph 6.0 mph 42% 0.00 in 0.00 W/m2
21:40 56.7 °F 33.9 °F 29.84 in ENE 3.0 mph 8.0 mph 42% 0.00 in 0.00 W/m2
21:45 56.7 °F 33.9 °F 29.84 in East 3.0 mph 7.0 mph 42% 0.00 in 0.00 W/m2
21:50 56.7 °F 33.9 °F 29.83 in Calm   7.0 mph 42% 0.00 in 0.00 W/m2
21:55 56.7 °F 33.9 °F 29.83 in East 2.0 mph 7.0 mph 42% 0.00 in 0.00 W/m2
22:00 56.6 °F 34.4 °F 29.84 in ENE 5.0 mph 7.0 mph 43% 0.00 in 0.00 W/m2
22:05 56.6 °F 33.8 °F 29.84 in East 8.0 mph 10.0 mph 42% 0.00 in 0.00 W/m2
22:10 56.5 °F 34.3 °F 29.83 in Calm   14.0 mph 43% 0.00 in 0.00 W/m2
22:15 56.5 °F 33.7 °F 29.83 in East 6.0 mph 14.0 mph 42% 0.00 in 0.00 W/m2
22:20 56.4 °F 33.6 °F 29.83 in ENE 2.0 mph 15.0 mph 42% 0.00 in 0.00 W/m2
22:25 56.3 °F 32.3 °F 29.83 in East 11.0 mph 15.0 mph 40% 0.00 in 0.00 W/m2
22:30 56.3 °F 30.4 °F 29.83 in East 2.0 mph 13.0 mph 37% 0.00 in 0.00 W/m2
22:35 56.4 °F 31.8 °F 29.83 in East 6.0 mph 13.0 mph 39% 0.00 in 0.00 W/m2
22:40 56.5 °F 31.2 °F 29.83 in East 7.0 mph 11.0 mph 38% 0.00 in 0.00 W/m2
22:45 56.6 °F 31.3 °F 29.83 in East 6.0 mph 14.0 mph 38% 0.00 in 0.00 W/m2
22:50 56.7 °F 30.7 °F 29.83 in East 6.0 mph 16.0 mph 37% 0.00 in 0.00 W/m2
22:55 56.8 °F 29.5 °F 29.83 in East 12.0 mph 14.0 mph 35% 0.00 in 0.00 W/m2
23:00 56.9 °F 29.5 °F 29.83 in East 2.0 mph 14.0 mph 35% 0.00 in 0.00 W/m2
23:05 57.2 °F 29.1 °F 29.83 in Calm   11.0 mph 34% 0.00 in 0.00 W/m2
23:10 57.3 °F 29.2 °F 29.83 in East 3.0 mph 22.0 mph 34% 0.00 in 0.00 W/m2
23:15 57.5 °F 28.6 °F 29.83 in Calm   12.0 mph 33% 0.00 in 0.00 W/m2
23:20 57.7 °F 28.8 °F 29.83 in Calm   11.0 mph 33% 0.00 in 0.00 W/m2
23:25 57.7 °F 30.3 °F 29.83 in ENE 5.0 mph 14.0 mph 35% 0.00 in 0.00 W/m2
23:31 57.7 °F 31.0 °F 29.83 in Calm   9.0 mph 36% 0.00 in 0.00 W/m2
23:36 57.6 °F 30.2 °F 29.83 in Calm   12.0 mph 35% 0.00 in 0.00 W/m2
23:40 57.6 °F 27.2 °F 29.83 in Calm   21.0 mph 31% 0.00 in 0.00 W/m2
23:46 57.8 °F 29.6 °F 29.83 in ENE 8.0 mph 15.0 mph 34% 0.00 in 0.00 W/m2
23:50 57.8 °F 28.2 °F 29.83 in Calm   10.0 mph 32% 0.00 in 0.00 W/m2
23:56 57.9 °F 29.7 °F 29.84 in Calm   15.0 mph 34% 0.00 in 0.00 W/m2
Foresthill Weather
 WU-history PHP script courtesy of   Juneau County Weather.
powered by Cumulus v1.9.3 (1059)
Ambient Weather VWS v14.00
Top Contact Website Map Copyright © 2007 - 2018 Foresthillweather.com Never base important decisions on this or any weather information obtained from the Internet